| time (UTC) | temp F | wind direction | speed MPH | gust MPH | rain 1hr in | rain 24hr in | rain mn in | humidity % | barometer mb |
| 20260905022522 | 70 | 46 | 1.0 | 7.0 | 0.00 | 0.00 | 0.00 | 85 | 1014.3 |
| 20260905022034 | 70 | 81 | 2.0 | 7.0 | 0.00 | 0.00 | 0.00 | 85 | 1014.2 |
| 20260905021541 | 70 | 68 | 4.0 | 7.0 | 0.00 | 0.00 | 0.00 | 85 | 1014.1 |
| 20260905021032 | 71 | 98 | 4.0 | 7.0 | 0.00 | 0.00 | 0.00 | 85 | 1014.3 |
| 20260905020539 | 71 | 63 | 3.0 | 7.0 | 0.00 | 0.00 | 0.00 | 85 | 1014.4 |
| 20260905020032 | 71 | 95 | 3.0 | 7.0 | 0.00 | 0.00 | 0.00 | 84 | 1014.2 |
| 20260905015541 | 71 | 46 | 2.0 | 6.0 | 0.00 | 0.00 | 0.00 | 84 | 1014.3 |
| 20260905015032 | 71 | 89 | 2.0 | 8.0 | 0.00 | 0.00 | 0.00 | 84 | 1014.4 |
| 20260905014535 | 71 | 89 | 4.0 | 8.0 | 0.00 | 0.00 | 0.00 | 84 | 1014.4 |
| 20260905014029 | 71 | 25 | 2.0 | 8.0 | 0.00 | 0.00 | 0.00 | 84 | 1014.4 |
| 20260905013537 | 71 | 46 | 1.0 | 7.0 | 0.00 | 0.00 | 0.00 | 83 | 1014.4 |
| 20260905013036 | 71 | 39 | 2.0 | 7.0 | 0.00 | 0.00 | 0.00 | 83 | 1014.4 |
| 20260905012526 | 71 | 89 | 1.0 | 8.0 | 0.00 | 0.00 | 0.00 | 83 | 1014.4 |
| 20260905012038 | 71 | 76 | 2.0 | 8.0 | 0.00 | 0.00 | 0.00 | 83 | 1014.2 |
| 20260905011527 | 71 | 84 | 3.0 | 7.0 | 0.00 | 0.00 | 0.00 | 83 | 1014.2 |
| 20260905011041 | 71 | 89 | 1.0 | 3.0 | 0.00 | 0.00 | 0.00 | 83 | 1014.2 |
| 20260905010531 | 71 | 179 | 1.0 | 5.0 | 0.00 | 0.00 | 0.00 | 82 | 1014.1 |
| 20260905010027 | 71 | 46 | 2.0 | 6.0 | 0.00 | 0.00 | 0.00 | 82 | 1014.1 |
| 20260905005522 | 71 | 28 | 2.0 | 9.0 | 0.00 | 0.00 | 0.00 | 81 | 1013.9 |
| 20260905005034 | 71 | 96 | 3.0 | 9.0 | 0.00 | 0.00 | 0.00 | 81 | 1013.8 |
| 20260905004548 | 71 | 68 | 4.0 | 9.0 | 0.00 | 0.00 | 0.00 | 80 | 1013.7 |
| 20260905004035 | 71 | 68 | 3.0 | 8.0 | 0.00 | 0.00 | 0.00 | 80 | 1013.8 |
| 20260905003526 | 71 | 72 | 2.0 | 8.0 | 0.00 | 0.00 | 0.00 | 80 | 1013.8 |
| 20260905003051 | 71 | 79 | 2.0 | 8.0 | 0.00 | 0.00 | 0.00 | 80 | 1013.8 |
| 20260905002601 | 71 | 70 | 2.0 | 8.0 | 0.00 | 0.00 | 0.00 | 79 | 1013.7 |
| 20260905002037 | 71 | 46 | 3.0 | 7.0 | 0.00 | 0.00 | 0.00 | 79 | 1013.7 |
| 20260905001528 | 71 | 82 | 3.0 | 7.0 | 0.00 | 0.00 | 0.00 | 79 | 1013.8 |
| 20260905001037 | 71 | 53 | 1.0 | 4.0 | 0.00 | 0.00 | 0.00 | 79 | 1013.8 |
| 20260905000528 | 71 | 46 | 2.0 | 7.0 | 0.00 | 0.00 | 0.00 | 79 | 1013.7 |
| 20260905000042 | 71 | 63 | 4.0 | 7.0 | 0.00 | 0.00 | 0.00 | 79 | 1013.7 |
| 20260904235530 | 71 | 83 | 3.0 | 8.0 | 0.00 | 0.00 | 0.00 | 78 | 1013.7 |
| 20260904235039 | 71 | 113 | 3.0 | 8.0 | 0.00 | 0.00 | 0.00 | 78 | 1013.5 |
| 20260904234529 | 72 | 100 | 3.0 | 7.0 | 0.00 | 0.00 | 0.00 | 78 | 1013.4 |
| 20260904234041 | 72 | 53 | 3.0 | 8.0 | 0.00 | 0.00 | 0.00 | 78 | 1013.4 |
| 20260904233552 | 72 | 103 | 5.0 | 8.0 | 0.00 | 0.00 | 0.00 | 78 | 1013.4 |
| 20260904233040 | 72 | 86 | 4.0 | 9.0 | 0.00 | 0.00 | 0.00 | 78 | 1013.3 |
| 20260904232529 | 72 | 95 | 4.0 | 9.0 | 0.00 | 0.00 | 0.00 | 78 | 1013.2 |
| 20260904232042 | 72 | 101 | 3.0 | 9.0 | 0.00 | 0.00 | 0.00 | 78 | 1013.3 |
| 20260904231526 | 72 | 46 | 2.0 | 9.0 | 0.00 | 0.00 | 0.00 | 77 | 1013.1 |
| 20260904231039 | 72 | 95 | 3.0 | 9.0 | 0.00 | 0.00 | 0.00 | 77 | 1013.0 |
| 20260904230527 | 72 | 102 | 3.0 | 9.0 | 0.00 | 0.00 | 0.00 | 78 | 1013.0 |
| 20260904230040 | 72 | 35 | 4.0 | 9.0 | 0.00 | 0.00 | 0.00 | 77 | 1012.9 |
| 20260904225529 | 72 | 117 | 3.0 | 8.0 | 0.00 | 0.00 | 0.00 | 77 | 1013.0 |
| 20260904225040 | 72 | 46 | 2.0 | 8.0 | 0.00 | 0.00 | 0.00 | 77 | 1013.0 |
| 20260904224529 | 72 | 56 | 2.0 | 7.0 | 0.00 | 0.00 | 0.00 | 77 | 1013.1 |
| 20260904224040 | 72 | 59 | 3.0 | 7.0 | 0.00 | 0.00 | 0.00 | 77 | 1013.1 |
| 20260904223528 | 72 | 84 | 3.0 | 7.0 | 0.00 | 0.00 | 0.00 | 78 | 1013.0 |
| 20260904223040 | 72 | 89 | 2.0 | 7.0 | 0.00 | 0.00 | 0.00 | 78 | 1013.0 |
| 20260904222530 | 72 | 74 | 2.0 | 7.0 | 0.00 | 0.00 | 0.00 | 78 | 1013.0 |
| 20260904222038 | 72 | 20 | 2.0 | 10.0 | 0.00 | 0.00 | 0.00 | 78 | 1013.0 |
| 20260904221527 | 72 | 51 | 4.0 | 10.0 | 0.00 | 0.00 | 0.00 | 78 | 1013.0 |
| 20260904221040 | 72 | 35 | 2.0 | 6.0 | 0.00 | 0.00 | 0.00 | 78 | 1013.0 |
| 20260904220535 | 72 | 54 | 2.0 | 8.0 | 0.00 | 0.00 | 0.00 | 79 | 1012.9 |
| 20260904220030 | 72 | 21 | 3.0 | 8.0 | 0.00 | 0.00 | 0.00 | 80 | 1013.0 |
| 20260904215538 | 72 | 76 | 2.0 | 6.0 | 0.00 | 0.00 | 0.00 | 80 | 1012.9 |
| 20260904215035 | 72 | 13 | 1.0 | 7.0 | 0.00 | 0.00 | 0.00 | 81 | 1012.9 |
| 20260904214524 | 73 | 314 | 2.0 | 7.0 | 0.00 | 0.00 | 0.00 | 83 | 1012.8 |
| 20260904214059 | 73 | 32 | 1.0 | 6.0 | 0.00 | 0.00 | 0.00 | 84 | 1012.8 |
| 20260904213524 | 73 | 117 | 2.0 | 8.0 | 0.00 | 0.00 | 0.00 | 84 | 1012.6 |
| 20260904213036 | 73 | 72 | 2.0 | 8.0 | 0.00 | 0.00 | 0.00 | 84 | 1012.7 |
| 20260904212544 | 73 | 89 | 2.0 | 6.0 | 0.00 | 0.00 | 0.00 | 84 | 1012.7 |
| 20260904212058 | 73 | 23 | 1.0 | 6.0 | 0.00 | 0.00 | 0.00 | 84 | 1012.7 |
| 20260904211527 | 73 | 117 | 2.0 | 8.0 | 0.00 | 0.00 | 0.00 | 84 | 1012.7 |
| 20260904211040 | 73 | 1 | 1.0 | 8.0 | 0.00 | 0.00 | 0.00 | 83 | 1012.7 |
| 20260904210528 | 73 | 63 | 2.0 | 5.0 | 0.00 | 0.00 | 0.00 | 83 | 1012.6 |
| 20260904210035 | 73 | 105 | 2.0 | 5.0 | 0.00 | 0.00 | 0.00 | 84 | 1012.6 |
| 20260904205525 | 74 | 46 | 1.0 | 5.0 | 0.00 | 0.02 | 0.00 | 84 | 1012.6 |
| 20260904205040 | 74 | 39 | 2.0 | 5.0 | 0.00 | 0.02 | 0.00 | 84 | 1012.5 |
| 20260904204527 | 74 | 51 | 2.0 | 5.0 | 0.00 | 0.02 | 0.00 | 84 | 1012.5 |
| 20260904204028 | 74 | 20 | 2.0 | 5.0 | 0.00 | 0.02 | 0.00 | 84 | 1012.6 |
| 20260904203539 | 74 | 20 | 2.0 | 7.0 | 0.00 | 0.02 | 0.00 | 84 | 1012.5 |
| 20260904203027 | 74 | 102 | 2.0 | 7.0 | 0.00 | 0.02 | 0.00 | 84 | 1012.5 |
| 20260904202532 | 74 | 46 | 3.0 | 8.0 | 0.00 | 0.02 | 0.00 | 84 | 1012.5 |
| 20260904202024 | 74 | 46 | 3.0 | 8.0 | 0.00 | 0.02 | 0.00 | 84 | 1012.5 |
| 20260904201534 | 74 | 74 | 3.0 | 8.0 | 0.00 | 0.02 | 0.00 | 84 | 1012.5 |
| 20260904201042 | 74 | 56 | 2.0 | 6.0 | 0.00 | 0.02 | 0.00 | 84 | 1012.6 |
| 20260904200531 | 74 | 98 | 2.0 | 7.0 | 0.00 | 0.02 | 0.00 | 85 | 1012.6 |
| 20260904200043 | 74 | 89 | 2.0 | 10.0 | 0.00 | 0.02 | 0.00 | 85 | 1012.7 |
| 20260904195530 | 74 | 68 | 3.0 | 10.0 | 0.00 | 0.17 | 0.00 | 84 | 1012.6 |
| 20260904195039 | 74 | 56 | 3.0 | 7.0 | 0.00 | 0.17 | 0.00 | 84 | 1012.7 |
| 20260904194527 | 74 | 65 | 2.0 | 9.0 | 0.00 | 0.17 | 0.00 | 84 | 1012.7 |
| 20260904194041 | 74 | 72 | 2.0 | 7.0 | 0.00 | 0.17 | 0.00 | 85 | 1012.7 |
| 20260904193101 | 74 | 23 | 2.0 | 7.0 | 0.00 | 0.17 | 0.00 | 85 | 1012.7 |
| 20260904192528 | 74 | 89 | 2.0 | 7.0 | 0.00 | 0.17 | 0.00 | 86 | 1012.8 |
| 20260904192103 | 74 | 46 | 2.0 | 9.0 | 0.00 | 0.17 | 0.00 | 86 | 1012.7 |
| 20260904191532 | 74 | 13 | 3.0 | 9.0 | 0.00 | 0.17 | 0.00 | 85 | 1012.8 |
| 20260904191024 | 74 | 89 | 2.0 | 7.0 | 0.00 | 0.17 | 0.00 | 85 | 1012.7 |
| 20260904190548 | 75 | 1 | 2.0 | 10.0 | 0.00 | 0.17 | 0.00 | 85 | 1012.6 |
| 20260904190043 | 75 | 70 | 3.0 | 9.0 | 0.00 | 0.17 | 0.00 | 86 | 1012.6 |
| 20260904185534 | 75 | 179 | 2.0 | 5.0 | 0.00 | 0.41 | 0.00 | 85 | 1012.6 |
| 20260904185030 | 75 | 16 | 2.0 | 5.0 | 0.00 | 0.41 | 0.00 | 86 | 1012.6 |
| 20260904184539 | 75 | 56 | 2.0 | 6.0 | 0.00 | 0.41 | 0.00 | 86 | 1012.6 |
| 20260904184027 | 76 | 344 | 2.0 | 6.0 | 0.00 | 0.41 | 0.00 | 86 | 1012.6 |
| 20260904183537 | 76 | 341 | 2.0 | 6.0 | 0.00 | 0.41 | 0.00 | 87 | 1012.7 |
| 20260904183026 | 76 | 72 | 2.0 | 5.0 | 0.00 | 0.41 | 0.00 | 88 | 1012.7 |
| 20260904182527 | 76 | 1 | 2.0 | 6.0 | 0.00 | 0.41 | 0.00 | 87 | 1012.7 |
| 20260904182104 | 76 | 20 | 2.0 | 6.0 | 0.00 | 0.41 | 0.00 | 87 | 1012.7 |
| 20260904181529 | 76 | 23 | 2.0 | 7.0 | 0.00 | 0.41 | 0.00 | 87 | 1012.7 |
| 20260904181040 | 76 | 63 | 2.0 | 7.0 | 0.00 | 0.41 | 0.00 | 87 | 1012.8 |
| 20260904180553 | 76 | 46 | 2.0 | 5.0 | 0.00 | 0.41 | 0.00 | 89 | 1012.7 |
| 20260904180043 | 76 | 28 | 2.0 | 5.0 | 0.00 | 0.41 | 0.00 | 89 | 1012.6 |
| 20260904175527 | 75 | 32 | 2.0 | 5.0 | 0.00 | 0.41 | 0.00 | 89 | 1012.6 |
| 20260904175038 | 75 | 28 | 2.0 | 5.0 | 0.00 | 0.41 | 0.00 | 89 | 1012.6 |
| 20260904174527 | 75 | 1 | 2.0 | 4.0 | 0.00 | 0.41 | 0.00 | 89 | 1012.7 |
| 20260904174035 | 75 | 46 | 1.0 | 3.0 | 0.00 | 0.41 | 0.00 | 91 | 1012.6 |
| 20260904173523 | 74 | 1 | 2.0 | 5.0 | 0.00 | 0.41 | 0.00 | 91 | 1012.6 |
| 20260904173045 | 74 | 314 | 3.0 | 5.0 | 0.00 | 0.41 | 0.00 | 92 | 1012.7 |
| 20260904172557 | 74 | 108 | 2.0 | 4.0 | 0.00 | 0.41 | 0.00 | 92 | 1012.8 |
| 20260904172025 | 74 | 107 | 2.0 | 4.0 | 0.00 | 0.41 | 0.00 | 92 | 1012.8 |
| 20260904171600 | 74 | 20 | 1.0 | 6.0 | 0.00 | 0.41 | 0.00 | 92 | 1012.9 |
| 20260904171029 | 74 | 112 | 4.0 | 6.0 | 0.00 | 0.41 | 0.00 | 92 | 1012.9 |
| 20260904170535 | 73 | 102 | 4.0 | 6.0 | 0.00 | 0.41 | 0.00 | 92 | 1013.0 |
| 20260904170026 | 73 | 100 | 2.0 | 5.0 | 0.00 | 0.41 | 0.00 | 92 | 1013.2 |
| 20260904165601 | 73 | 110 | 3.0 | 5.0 | 0.00 | 0.41 | 0.00 | 92 | 1013.3 |
| 20260904165031 | 73 | 79 | 3.0 | 5.0 | 0.00 | 0.41 | 0.00 | 93 | 1013.4 |
| 20260904164537 | 73 | 110 | 3.0 | 5.0 | 0.00 | 0.41 | 0.00 | 93 | 1013.4 |
| 20260904164027 | 73 | 122 | 4.0 | 6.0 | 0.00 | 0.41 | 0.00 | 93 | 1013.4 |
| 20260904163537 | 73 | 127 | 4.0 | 6.0 | 0.00 | 0.41 | 0.00 | 93 | 1013.4 |
| 20260904163052 | 73 | 140 | 4.0 | 7.0 | 0.00 | 0.41 | 0.00 | 93 | 1013.5 |
| 20260904162538 | 72 | 119 | 5.0 | 7.0 | 0.00 | 0.41 | 0.00 | 94 | 1013.6 |
| 20260904162029 | 72 | 117 | 4.0 | 6.0 | 0.00 | 0.41 | 0.00 | 93 | 1013.8 |
| 20260904161536 | 72 | 96 | 5.0 | 7.0 | 0.00 | 0.41 | 0.00 | 93 | 1013.9 |
| 20260904161025 | 72 | 120 | 5.0 | 7.0 | 0.00 | 0.41 | 0.00 | 93 | 1013.9 |
| 20260904160532 | 72 | 119 | 6.0 | 8.0 | 0.00 | 0.41 | 0.00 | 93 | 1013.9 |
| 20260904160024 | 72 | 129 | 7.0 | 8.0 | 0.00 | 0.41 | 0.00 | 93 | 1013.9 |
| 20260904155615 | 72 | 124 | 6.0 | 9.0 | 0.00 | 0.41 | 0.00 | 93 | 1013.9 |
| 20260904155030 | 72 | 147 | 7.0 | 10.0 | 0.00 | 0.41 | 0.00 | 93 | 1013.9 |
| 20260904154540 | 72 | 122 | 8.0 | 10.0 | 0.00 | 0.41 | 0.00 | 93 | 1013.9 |
| 20260904154030 | 71 | 124 | 8.0 | 11.0 | 0.00 | 0.41 | 0.00 | 93 | 1013.9 |
| 20260904153539 | 71 | 112 | 9.0 | 11.0 | 0.00 | 0.41 | 0.00 | 93 | 1013.8 |
| 20260904153030 | 71 | 129 | 8.0 | 11.0 | 0.00 | 0.41 | 0.00 | 93 | 1013.9 |
| 20260904152540 | 71 | 120 | 8.0 | 11.0 | 0.00 | 0.41 | 0.00 | 93 | 1014.0 |
| 20260904152114 | 71 | 127 | 9.0 | 11.0 | 0.00 | 0.41 | 0.00 | 93 | 1014.0 |
| 20260904151527 | 71 | 137 | 8.0 | 11.0 | 0.00 | 0.41 | 0.00 | 93 | 1014.2 |
| 20260904151038 | 71 | 127 | 9.0 | 11.0 | 0.00 | 0.41 | 0.00 | 93 | 1014.3 |
| 20260904150541 | 71 | 137 | 8.0 | 10.0 | 0.00 | 0.41 | 0.00 | 92 | 1014.5 |
| 20260904150034 | 71 | 124 | 8.0 | 11.0 | 0.00 | 0.41 | 0.00 | 92 | 1014.6 |
| 20260904145524 | 70 | 124 | 9.0 | 11.0 | 0.00 | 0.41 | 0.00 | 92 | 1014.5 |
| 20260904145035 | 70 | 124 | 8.0 | 10.0 | 0.00 | 0.41 | 0.00 | 92 | 1014.5 |
| 20260904144540 | 70 | 120 | 7.0 | 10.0 | 0.00 | 0.41 | 0.00 | 92 | 1014.5 |
| 20260904144056 | 70 | 121 | 8.0 | 10.0 | 0.00 | 0.41 | 0.00 | 92 | 1014.2 |
| 20260904143527 | 70 | 112 | 5.0 | 9.0 | 0.00 | 0.41 | 0.00 | 92 | 1014.2 |
| 20260904143036 | 70 | 103 | 4.0 | 10.0 | 0.00 | 0.41 | 0.00 | 92 | 1014.2 |
| 20260904142528 | 70 | 103 | 7.0 | 11.0 | 0.00 | 0.41 | 0.00 | 92 | 1014.2 |
| 20260904142038 | 70 | 108 | 9.0 | 11.0 | 0.00 | 0.41 | 0.00 | 92 | 1014.0 |
| 20260904141528 | 70 | 98 | 8.0 | 10.0 | 0.00 | 0.41 | 0.00 | 92 | 1014.0 |
| 20260904141102 | 70 | 119 | 8.0 | 12.0 | 0.00 | 0.41 | 0.00 | 92 | 1013.9 |
| 20260904140528 | 70 | 108 | 9.0 | 12.0 | 0.00 | 0.41 | 0.00 | 92 | 1013.9 |
| 20260904140039 | 70 | 113 | 9.0 | 12.0 | 0.00 | 0.41 | 0.00 | 92 | 1013.9 |
| 20260904135032 | 70 | 129 | 9.0 | 10.0 | 0.00 | 0.41 | 0.00 | 92 | 1014.1 |
| 20260904134541 | 70 | 122 | 8.0 | 10.0 | 0.00 | 0.41 | 0.00 | 92 | 1014.0 |
| 20260904134029 | 70 | 115 | 7.0 | 9.0 | 0.00 | 0.41 | 0.00 | 92 | 1013.9 |
| 20260904133601 | 69 | 103 | 6.0 | 9.0 | 0.00 | 0.41 | 0.00 | 92 | 1013.9 |
| 20260904133030 | 69 | 89 | 6.0 | 8.0 | 0.00 | 0.41 | 0.00 | 92 | 1014.1 |
| 20260904132539 | 69 | 77 | 4.0 | 7.0 | 0.00 | 0.41 | 0.00 | 92 | 1014.3 |
| 20260904132028 | 69 | 119 | 6.0 | 9.0 | 0.00 | 0.41 | 0.00 | 92 | 1014.2 |
| 20260904131538 | 69 | 103 | 5.0 | 9.0 | 0.00 | 0.41 | 0.00 | 92 | 1014.3 |
| 20260904131056 | 69 | 122 | 6.0 | 8.0 | 0.00 | 0.41 | 0.00 | 92 | 1014.2 |
| 20260904130538 | 69 | 122 | 4.0 | 6.0 | 0.00 | 0.41 | 0.00 | 92 | 1014.4 |
| 20260904130032 | 69 | 113 | 2.0 | 3.0 | 0.00 | 0.41 | 0.00 | 91 | 1014.4 |
| 20260904125522 | 69 | 46 | 1.0 | 3.0 | 0.00 | 0.41 | 0.00 | 91 | 1014.6 |
| 20260904125035 | 69 | 72 | 2.0 | 3.0 | 0.00 | 0.41 | 0.00 | 91 | 1014.5 |
| 20260904124539 | 69 | 1 | 1.0 | 3.0 | 0.00 | 0.41 | 0.00 | 92 | 1014.4 |
| 20260904124031 | 69 | 76 | 1.0 | 4.0 | 0.00 | 0.41 | 0.00 | 92 | 1014.2 |
| 20260904123541 | 69 | 76 | 2.0 | 4.0 | 0.00 | 0.41 | 0.00 | 92 | 1014.1 |
| 20260904123056 | 69 | 56 | 2.0 | 4.0 | 0.00 | 0.41 | 0.00 | 92 | 1014.0 |
| 20260904122523 | 69 | 89 | 2.0 | 4.0 | 0.00 | 0.41 | 0.00 | 92 | 1013.9 |
| 20260904122049 | 69 | 314 | 1.0 | 4.0 | 0.00 | 0.41 | 0.00 | 92 | 1013.9 |
| 20260904121537 | 69 | 117 | 1.0 | 5.0 | 0.00 | 0.41 | 0.00 | 92 | 1013.8 |
| 20260904121025 | 69 | 35 | 2.0 | 8.0 | 0.00 | 0.41 | 0.00 | 92 | 1013.8 |
| 20260904120535 | 69 | 314 | 4.0 | 8.0 | 0.00 | 0.41 | 0.00 | 92 | 1013.8 |
| 20260904120026 | 69 | 83 | 3.0 | 7.0 | 0.00 | 0.41 | 0.00 | 92 | 1013.8 |
| 20260904115531 | 69 | 98 | 4.0 | 7.0 | 0.00 | 0.41 | 0.00 | 92 | 1013.6 |
| 20260904115058 | 69 | 96 | 3.0 | 8.0 | 0.00 | 0.41 | 0.00 | 92 | 1013.7 |
| 20260904114526 | 69 | 76 | 2.0 | 8.0 | 0.00 | 0.41 | 0.00 | 92 | 1013.8 |
| 20260904114040 | 69 | 95 | 4.0 | 6.0 | 0.00 | 0.41 | 0.00 | 92 | 1013.7 |
| 20260904113544 | 69 | 96 | 3.0 | 6.0 | 0.00 | 0.41 | 0.00 | 92 | 1013.6 |
| 20260904113034 | 69 | 115 | 3.0 | 6.0 | 0.00 | 0.41 | 0.00 | 92 | 1013.4 |
| 20260904112551 | 69 | 63 | 1.0 | 5.0 | 0.00 | 0.41 | 0.00 | 92 | 1013.4 |
| 20260904112039 | 69 | 56 | 1.0 | 5.0 | 0.00 | 0.41 | 0.00 | 92 | 1013.2 |
| 20260904111528 | 69 | 63 | 2.0 | 5.0 | 0.00 | 0.41 | 0.00 | 92 | 1013.1 |
| 20260904111040 | 69 | 46 | 1.0 | 3.0 | 0.00 | 0.41 | 0.00 | 92 | 1013.2 |
| 20260904110554 | 69 | 63 | 1.0 | 3.0 | 0.00 | 0.41 | 0.00 | 92 | 1013.1 |
| 20260904110042 | 69 | 76 | 1.0 | 3.0 | 0.00 | 0.41 | 0.00 | 92 | 1013.0 |
| 20260904105529 | 69 | 56 | 1.0 | 4.0 | 0.00 | 0.41 | 0.00 | 92 | 1013.0 |
| 20260904105038 | 69 | 35 | 1.0 | 4.0 | 0.00 | 0.41 | 0.00 | 92 | 1013.0 |
| 20260904104522 | 69 | 360 | 1.0 | 4.0 | 0.00 | 0.41 | 0.00 | 92 | 1013.0 |
| 20260904104034 | 69 | 46 | 1.0 | 2.0 | 0.00 | 0.41 | 0.00 | 92 | 1012.9 |
| 20260904103523 | 69 | 72 | 1.0 | 3.0 | 0.00 | 0.41 | 0.00 | 92 | 1013.0 |
| 20260904102535 | 69 | 46 | 0.0 | 4.0 | 0.00 | 0.41 | 0.00 | 92 | 1012.9 |
| 20260904102102 | 69 | 59 | 2.0 | 4.0 | 0.00 | 0.41 | 0.00 | 92 | 1013.0 |
| 20260904101529 | 69 | 89 | 0.0 | 2.0 | 0.00 | 0.41 | 0.00 | 92 | 1013.1 |
| 20260904101051 | 69 | 63 | 1.0 | 3.0 | 0.00 | 0.41 | 0.00 | 92 | 1013.1 |
| 20260904100540 | 69 | 89 | 1.0 | 4.0 | 0.00 | 0.41 | 0.00 | 92 | 1013.0 |
| 20260904100031 | 69 | 46 | 0.0 | 4.0 | 0.00 | 0.41 | 0.00 | 92 | 1013.0 |
| 20260904095527 | 69 | 89 | 2.0 | 4.0 | 0.00 | 0.41 | 0.00 | 91 | 1013.0 |
| 20260904095040 | 70 | 89 | 2.0 | 4.0 | 0.00 | 0.41 | 0.00 | 91 | 1013.0 |
| 20260904094528 | 70 | 105 | 0.0 | 4.0 | 0.00 | 0.41 | 0.00 | 91 | 1013.1 |
| 20260904094036 | 70 | 63 | 1.0 | 2.0 | 0.00 | 0.41 | 0.00 | 91 | 1012.9 |
| 20260904093525 | 70 | 117 | 0.0 | 4.0 | 0.00 | 0.41 | 0.00 | 91 | 1012.8 |
| 20260904093037 | 70 | 63 | 1.0 | 4.0 | 0.00 | 0.41 | 0.00 | 91 | 1012.7 |
| 20260904092546 | 70 | 46 | 1.0 | 4.0 | 0.00 | 0.41 | 0.00 | 91 | 1013.0 |
| 20260904092026 | 70 | 89 | 1.0 | 4.0 | 0.00 | 0.41 | 0.00 | 91 | 1013.0 |
| 20260904091539 | 70 | 117 | 2.0 | 5.0 | 0.00 | 0.41 | 0.00 | 91 | 1012.9 |
| 20260904091031 | 70 | 81 | 2.0 | 5.0 | 0.00 | 0.41 | 0.00 | 91 | 1012.8 |
| 20260904090043 | 70 | 39 | 1.0 | 4.0 | 0.00 | 0.41 | 0.00 | 91 | 1013.0 |
| 20260904085531 | 70 | 89 | 0.0 | 3.0 | 0.00 | 0.41 | 0.00 | 91 | 1013.1 |
| 20260904085043 | 70 | 28 | 1.0 | 3.0 | 0.00 | 0.41 | 0.00 | 91 | 1013.1 |
| 20260904084547 | 70 | 63 | 0.0 | 5.0 | 0.00 | 0.41 | 0.00 | 91 | 1013.1 |
| 20260904084038 | 70 | 72 | 2.0 | 5.0 | 0.00 | 0.41 | 0.00 | 91 | 1012.9 |
| 20260904083524 | 71 | 110 | 4.0 | 6.0 | 0.00 | 0.41 | 0.00 | 91 | 1012.8 |
| 20260904083036 | 71 | 102 | 5.0 | 6.0 | 0.00 | 0.41 | 0.00 | 91 | 1012.9 |
| 20260904082525 | 71 | 110 | 4.0 | 6.0 | 0.00 | 0.41 | 0.00 | 91 | 1013.0 |
| 20260904082036 | 71 | 124 | 4.0 | 5.0 | 0.00 | 0.41 | 0.00 | 92 | 1013.1 |
| 20260904081541 | 71 | 117 | 4.0 | 7.0 | 0.00 | 0.41 | 0.00 | 92 | 1013.2 |
| 20260904081036 | 71 | 117 | 4.0 | 7.0 | 0.00 | 0.41 | 0.00 | 91 | 1013.2 |
| 20260904080526 | 71 | 115 | 5.0 | 6.0 | 0.00 | 0.41 | 0.00 | 91 | 1013.1 |
| 20260904080037 | 71 | 115 | 4.0 | 6.0 | 0.00 | 0.41 | 0.00 | 91 | 1013.3 |
| 20260904075550 | 71 | 133 | 4.0 | 6.0 | 0.00 | 0.41 | 0.00 | 91 | 1013.3 |
| 20260904075042 | 71 | 131 | 5.0 | 6.0 | 0.00 | 0.41 | 0.00 | 91 | 1013.4 |
| 20260904074533 | 71 | 112 | 4.0 | 6.0 | 0.00 | 0.41 | 0.00 | 91 | 1013.3 |
| 20260904074041 | 71 | 127 | 5.0 | 6.0 | 0.00 | 0.41 | 0.00 | 91 | 1013.3 |
| 20260904073528 | 71 | 124 | 5.0 | 6.0 | 0.00 | 0.41 | 0.00 | 91 | 1013.3 |
| 20260904073049 | 71 | 132 | 5.0 | 6.0 | 0.00 | 0.41 | 0.00 | 91 | 1013.4 |
| 20260904072537 | 71 | 121 | 5.0 | 7.0 | 0.00 | 0.41 | 0.00 | 90 | 1013.2 |
| 20260904072024 | 71 | 133 | 5.0 | 7.0 | 0.00 | 0.41 | 0.00 | 90 | 1013.3 |
| 20260904071559 | 71 | 135 | 5.0 | 6.0 | 0.00 | 0.41 | 0.00 | 90 | 1013.2 |
| 20260904071030 | 70 | 131 | 5.0 | 7.0 | 0.00 | 0.41 | 0.00 | 90 | 1013.2 |
| 20260904070538 | 70 | 124 | 6.0 | 7.0 | 0.00 | 0.41 | 0.00 | 90 | 1013.1 |
| 20260904070030 | 70 | 135 | 6.0 | 8.0 | 0.00 | 0.41 | 0.00 | 90 | 1013.3 |
| 20260904065536 | 70 | 121 | 5.0 | 7.0 | 0.00 | 0.41 | 0.00 | 90 | 1013.3 |
| 20260904065112 | 70 | 132 | 6.0 | 8.0 | 0.00 | 0.41 | 0.00 | 89 | 1013.2 |
| 20260904064548 | 70 | 115 | 6.0 | 8.0 | 0.00 | 0.41 | 0.00 | 89 | 1013.3 |
| 20260904064035 | 70 | 129 | 6.0 | 8.0 | 0.00 | 0.41 | 0.00 | 89 | 1013.5 |
| 20260904063549 | 70 | 133 | 6.0 | 8.0 | 0.00 | 0.41 | 0.00 | 90 | 1013.7 |
| 20260904063029 | 70 | 121 | 4.0 | 6.0 | 0.00 | 0.41 | 0.00 | 90 | 1013.9 |
| 20260904062600 | 70 | 130 | 5.0 | 7.0 | 0.00 | 0.41 | 0.00 | 90 | 1013.9 |
| 20260904062034 | 70 | 124 | 5.0 | 7.0 | 0.00 | 0.41 | 0.00 | 90 | 1013.9 |
| 20260904061523 | 70 | 131 | 5.0 | 7.0 | 0.00 | 0.41 | 0.00 | 90 | 1013.9 |
| 20260904061031 | 70 | 135 | 5.0 | 7.0 | 0.00 | 0.41 | 0.00 | 91 | 1014.0 |
| 20260904060522 | 70 | 122 | 6.0 | 8.0 | 0.00 | 0.41 | 0.00 | 91 | 1014.0 |
| 20260904060036 | 70 | 124 | 6.0 | 8.0 | 0.00 | 0.41 | 0.00 | 91 | 1013.8 |
| 20260904055546 | 70 | 127 | 7.0 | 8.0 | 0.00 | 0.41 | 0.00 | 92 | 1013.8 |
| 20260904055033 | 70 | 124 | 7.0 | 8.0 | 0.00 | 0.41 | 0.00 | 92 | 1013.7 |
| 20260904054541 | 70 | 117 | 7.0 | 8.0 | 0.00 | 0.41 | 0.00 | 92 | 1013.7 |
| 20260904054032 | 70 | 112 | 6.0 | 9.0 | 0.00 | 0.41 | 0.00 | 92 | 1014.0 |
| 20260904053523 | 70 | 110 | 7.0 | 9.0 | 0.00 | 0.41 | 0.00 | 92 | 1013.9 |
| 20260904053035 | 70 | 126 | 6.0 | 8.0 | 0.00 | 0.41 | 0.00 | 92 | 1014.0 |
| 20260904052527 | 70 | 117 | 7.0 | 8.0 | 0.00 | 0.41 | 0.00 | 92 | 1014.0 |
| 20260904052038 | 70 | 129 | 7.0 | 8.0 | 0.00 | 0.41 | 0.00 | 92 | 1014.1 |
| 20260904051541 | 69 | 95 | 3.0 | 6.0 | 0.00 | 0.41 | 0.00 | 92 | 1014.1 |
| 20260904051037 | 69 | 89 | 3.0 | 6.0 | 0.00 | 0.41 | 0.00 | 92 | 1014.1 |
| 20260904050526 | 69 | 110 | 5.0 | 6.0 | 0.00 | 0.41 | 0.00 | 92 | 1014.1 |
| 20260904050051 | 70 | 95 | 3.0 | 6.0 | 0.00 | 0.41 | 0.00 | 92 | 1014.1 |
| 20260904045532 | 70 | 72 | 3.0 | 6.0 | 0.00 | 0.41 | 0.00 | 92 | 1014.0 |
| 20260904045024 | 70 | 103 | 0.0 | 8.0 | 0.00 | 0.41 | 0.00 | 92 | 1014.0 |
| 20260904044533 | 70 | 121 | 5.0 | 8.0 | 0.00 | 0.41 | 0.00 | 92 | 1013.9 |
| 20260904044105 | 70 | 110 | 6.0 | 9.0 | 0.00 | 0.41 | 0.00 | 92 | 1014.0 |
| 20260904043533 | 70 | 122 | 8.0 | 9.0 | 0.00 | 0.41 | 0.00 | 92 | 1013.8 |
| 20260904043026 | 70 | 98 | 5.0 | 6.0 | 0.00 | 0.41 | 0.00 | 92 | 1013.8 |
| 20260904042534 | 70 | 105 | 3.0 | 8.0 | 0.00 | 0.41 | 0.00 | 92 | 1013.9 |
| 20260904042024 | 70 | 82 | 4.0 | 8.0 | 0.00 | 0.41 | 0.00 | 92 | 1014.0 |
| 20260904041532 | 70 | 110 | 5.0 | 7.0 | 0.00 | 0.41 | 0.00 | 92 | 1014.1 |
| 20260904041025 | 70 | 102 | 4.0 | 6.0 | 0.00 | 0.41 | 0.00 | 92 | 1014.0 |
| 20260904040533 | 70 | 100 | 4.0 | 8.0 | 0.00 | 0.41 | 0.00 | 92 | 1013.9 |
| 20260904040042 | 70 | 108 | 6.0 | 8.0 | 0.00 | 0.41 | 0.00 | 92 | 1013.8 |
| 20260904035545 | 70 | 100 | 5.0 | 6.0 | 0.00 | 0.41 | 0.41 | 92 | 1013.8 |
| 20260904035100 | 70 | 107 | 4.0 | 6.0 | 0.00 | 0.41 | 0.41 | 92 | 1013.8 |
| 20260904034525 | 70 | 126 | 2.0 | 4.0 | 0.00 | 0.41 | 0.41 | 92 | 1013.8 |
| 20260904034037 | 70 | 269 | 1.0 | 3.0 | 0.00 | 0.41 | 0.41 | 92 | 1013.8 |
| 20260904033528 | 70 | 89 | 0.0 | 4.0 | 0.00 | 0.41 | 0.41 | 92 | 1013.8 |
| 20260904033036 | 70 | 1 | 0.0 | 4.0 | 0.00 | 0.41 | 0.41 | 92 | 1013.7 |
| 20260904032558 | 70 | 89 | 3.0 | 4.0 | 0.00 | 0.41 | 0.41 | 92 | 1013.8 |
| 20260904032030 | 70 | 102 | 2.0 | 7.0 | 0.00 | 0.41 | 0.41 | 92 | 1013.8 |
| 20260904031537 | 70 | 108 | 3.0 | 7.0 | 0.00 | 0.41 | 0.41 | 92 | 1013.8 |
| 20260904031029 | 70 | 103 | 5.0 | 6.0 | 0.00 | 0.41 | 0.41 | 92 | 1013.7 |
| 20260904030540 | 70 | 63 | 1.0 | 2.0 | 0.00 | 0.41 | 0.41 | 92 | 1013.8 |
| 20260904030030 | 70 | 46 | 1.0 | 2.0 | 0.00 | 0.41 | 0.41 | 92 | 1013.7 |
| 20260904025558 | 70 | 89 | 1.0 | 2.0 | 0.00 | 0.41 | 0.41 | 92 | 1013.7 |
| 20260904025037 | 70 | 35 | 1.0 | 2.0 | 0.00 | 0.41 | 0.41 | 92 | 1013.6 |
| 20260904024527 | 70 | 46 | 1.0 | 2.0 | 0.00 | 0.41 | 0.41 | 92 | 1013.7 |
| 20260904024034 | 70 | 314 | 1.0 | 2.0 | 0.00 | 0.41 | 0.41 | 92 | 1013.8 |
| 20260904023523 | 70 | 46 | 1.0 | 2.0 | 0.00 | 0.41 | 0.41 | 92 | 1013.8 |
| 20260904023036 | 70 | 46 | 1.0 | 2.0 | 0.00 | 0.41 | 0.41 | 93 | 1013.8 |